Regional Weather Roundup
Issued by NWS Goodland, KS

Home | Current Version | Previous Version | Text Only | Print | Product List | Glossary Off
Versions: 1 2 3 4 5 6 7 8 9 10 11 12 13 14 15 16 17 18 19 20 21 22 23 24 25 26 27 28 29 30 31 32 33 34 35 36 37 38 39 40 41 42 43 44 45 46 47 48 49 50

000
ASUS43 KGLD 272308
RWRGLD

GOODLAND FORECAST AREA HOURLY WEATHER ROUNDUP
NATIONAL WEATHER SERVICE GOODLAND KS
500 PM MDT FRI MAY 27 2016

...OFFICIAL OBSERVATIONS...

CITY           SKY/WX    TMP DP  RH WIND       PRES   REMARKS
GOODLAND KS    PTSUNNY   62  53  72 NE12      29.74R
HILL CITY KS   PTSUNNY   64  59  83 NE9       29.68F
IMPERIAL NEB   TSTM      51  47  86 N25       29.80R
MCCOOK NEB     CLOUDY    62  56  80 E6        29.74R
AKRON CO       SUNNY     55  44  66 N17       29.85S
BURLINGTON CO  TSTM      51  46  83 N21       29.81R
LIMON CO       LGT RAIN  47  44  90 N14       29.86F
$$

...UNOFFICIAL OBSERVATIONS...

CITY           SKY/WX    TMP DP  RH WIND       PRES   REMARKS
GOVE KS          N/A     65  32  29 MISG        N/A
LENORA KS        N/A     62  32  32 MISG        N/A
SHARON SPRINGS   N/A     60  55  84 NE8G16      N/A
KIT CARSON CO    N/A     52  47  83 MISG        N/A
YUMA CO          N/A     59  51  75 NE12G22     N/A
$$




USA.gov is the U.S. government's official web portal to all federal, state and local government web resources and services.